Time,TemperatureF,DewpointF,PressureIn,WindDirection,WindDirectionDegrees,WindSpeedMPH,WindSpeedGustMPH,Humidity,HourlyPrecipIn,Conditions,Clouds,dailyrainin,SolarRadiationWatts/m^2,SoftwareType,DateUTC
2013-03-21 00:01:00,50.1,47.9,29.81,NW,315,0.0,0.0,92,0.00,,,0.00,0,WeatherCatV1.02B3,2013-03-21 07:01:00,
2013-03-21 00:07:00,51.1,48.9,29.81,NNE,25,0.0,0.0,92,0.00,,,0.00,0,WeatherCatV1.02B3,2013-03-21 07:07:00,
2013-03-21 00:12:00,51.0,48.5,29.81,NE,41,1.0,4.0,91,0.00,,,0.00,0,WeatherCatV1.02B3,2013-03-21 07:12:00,
2013-03-21 00:16:00,50.9,48.4,29.81,NW,304,0.0,1.0,91,0.00,,,0.00,0,WeatherCatV1.02B3,2013-03-21 07:16:00,
2013-03-21 00:21:00,50.6,47.8,29.81,WNW,302,0.0,0.0,90,0.00,,,0.00,0,WeatherCatV1.02B3,2013-03-21 07:21:00,
2013-03-21 00:26:00,49.7,46.9,29.81,WNW,302,0.0,0.0,90,0.00,,,0.00,0,WeatherCatV1.02B3,2013-03-21 07:26:00,
2013-03-21 00:31:00,49.1,46.3,29.81,WNW,302,0.0,1.0,90,0.00,,,0.00,0,WeatherCatV1.02B3,2013-03-21 07:31:00,
2013-03-21 00:36:00,49.2,47.0,29.81,WNW,302,0.0,0.0,92,0.00,,,0.00,0,WeatherCatV1.02B3,2013-03-21 07:36:00,
2013-03-21 00:41:00,49.5,47.3,29.81,WNW,302,0.0,0.0,92,0.00,,,0.00,0,WeatherCatV1.02B3,2013-03-21 07:41:00,
2013-03-21 00:46:00,49.1,46.6,29.81,WNW,302,0.0,1.0,91,0.00,,,0.00,0,WeatherCatV1.02B3,2013-03-21 07:46:00,
2013-03-21 00:51:00,48.7,46.5,29.81,WNW,302,0.0,2.0,92,0.00,,,0.00,0,WeatherCatV1.02B3,2013-03-21 07:51:00,
2013-03-21 00:56:00,49.2,47.3,29.81,WNW,302,0.0,1.0,93,0.00,,,0.00,0,WeatherCatV1.02B3,2013-03-21 07:56:00,
2013-03-21 01:01:00,49.0,46.8,29.81,WNW,302,0.0,0.0,92,0.00,,,0.00,0,WeatherCatV1.02B3,2013-03-21 08:01:00,
2013-03-21 01:06:00,49.3,47.4,29.81,NE,49,0.0,2.0,93,0.00,,,0.00,0,WeatherCatV1.02B3,2013-03-21 08:06:00,
2013-03-21 01:11:00,49.5,47.3,29.81,NE,49,0.0,0.0,92,0.00,,,0.00,0,WeatherCatV1.02B3,2013-03-21 08:11:00,
2013-03-21 01:16:00,49.7,47.8,29.81,North,0,0.0,0.0,93,0.00,,,0.00,0,WeatherCatV1.02B3,2013-03-21 08:16:00,
2013-03-21 01:21:00,49.4,47.2,29.81,NE,49,0.0,0.0,92,0.00,,,0.00,0,WeatherCatV1.02B3,2013-03-21 08:21:00,
2013-03-21 01:26:00,49.1,46.9,29.81,NE,54,0.0,1.0,92,0.00,,,0.00,0,WeatherCatV1.02B3,2013-03-21 08:26:00,
2013-03-21 01:31:00,48.6,46.4,29.81,West,273,1.0,3.0,92,0.00,,,0.00,0,WeatherCatV1.02B3,2013-03-21 08:31:00,
2013-03-21 01:36:00,48.2,46.0,29.81,West,273,0.0,0.0,92,0.00,,,0.00,0,WeatherCatV1.02B3,2013-03-21 08:36:00,
2013-03-21 01:41:00,48.5,46.6,29.81,WSW,257,1.0,2.0,93,0.00,,,0.00,0,WeatherCatV1.02B3,2013-03-21 08:41:00,
2013-03-21 01:46:00,48.2,46.0,29.81,WSW,257,0.0,0.0,92,0.00,,,0.00,0,WeatherCatV1.02B3,2013-03-21 08:46:00,
2013-03-21 01:51:00,47.9,45.7,29.81,WSW,257,0.0,1.0,92,0.00,,,0.00,0,WeatherCatV1.02B3,2013-03-21 08:51:00,
2013-03-21 01:56:00,47.8,45.9,29.81,WSW,257,0.0,0.0,93,0.00,,,0.00,0,WeatherCatV1.02B3,2013-03-21 08:56:00,
2013-03-21 02:01:00,47.9,46.0,29.81,WSW,257,0.0,0.0,93,0.00,,,0.00,0,WeatherCatV1.02B3,2013-03-21 09:01:00,
2013-03-21 02:06:00,47.6,45.7,29.81,West,259,0.0,1.0,93,0.00,,,0.00,0,WeatherCatV1.02B3,2013-03-21 09:06:00,
2013-03-21 02:11:00,47.3,45.4,29.81,West,259,0.0,0.0,93,0.00,,,0.00,0,WeatherCatV1.02B3,2013-03-21 09:11:00,
2013-03-21 02:16:00,47.8,46.2,29.81,West,259,0.0,0.0,94,0.00,,,0.00,0,WeatherCatV1.02B3,2013-03-21 09:16:00,
2013-03-21 02:21:00,47.7,45.8,29.81,West,259,0.0,0.0,93,0.00,,,0.00,0,WeatherCatV1.02B3,2013-03-21 09:21:00,
2013-03-21 02:26:00,47.6,45.7,29.81,West,259,0.0,0.0,93,0.00,,,0.00,0,WeatherCatV1.02B3,2013-03-21 09:26:00,
2013-03-21 02:31:00,47.9,46.3,29.81,West,259,0.0,0.0,94,0.00,,,0.00,0,WeatherCatV1.02B3,2013-03-21 09:31:00,
2013-03-21 02:36:00,48.2,46.6,29.81,East,82,0.0,0.0,94,0.00,,,0.00,0,WeatherCatV1.02B3,2013-03-21 09:36:00,
2013-03-21 02:41:00,47.5,45.6,29.81,NNW,329,1.0,1.0,93,0.00,,,0.00,0,WeatherCatV1.02B3,2013-03-21 09:41:00,
2013-03-21 02:46:00,47.2,45.3,29.81,NNW,329,0.0,0.0,93,0.00,,,0.00,0,WeatherCatV1.02B3,2013-03-21 09:46:00,
2013-03-21 02:51:00,47.0,45.1,29.81,NNW,329,0.0,1.0,93,0.00,,,0.00,0,WeatherCatV1.02B3,2013-03-21 09:51:00,
2013-03-21 02:56:00,47.3,45.7,29.81,North,0,0.0,0.0,94,0.00,,,0.00,0,WeatherCatV1.02B3,2013-03-21 09:56:00,
2013-03-21 03:02:00,47.3,45.7,29.81,North,355,0.0,1.0,94,0.00,,,0.00,0,WeatherCatV1.02B3,2013-03-21 10:02:00,
2013-03-21 03:07:00,46.9,45.0,29.81,North,355,0.0,1.0,93,0.00,,,0.00,0,WeatherCatV1.02B3,2013-03-21 10:07:00,
2013-03-21 03:12:00,46.3,44.4,29.81,NNW,348,0.0,0.0,93,0.00,,,0.00,0,WeatherCatV1.02B3,2013-03-21 10:12:00,
2013-03-21 03:17:00,46.8,45.2,29.81,NNW,348,1.0,1.0,94,0.00,,,0.00,0,WeatherCatV1.02B3,2013-03-21 10:17:00,
2013-03-21 03:22:00,46.5,44.9,29.81,NNW,348,0.0,1.0,94,0.00,,,0.00,0,WeatherCatV1.02B3,2013-03-21 10:22:00,
2013-03-21 03:27:00,46.7,45.1,29.81,NNW,348,0.0,1.0,94,0.00,,,0.00,0,WeatherCatV1.02B3,2013-03-21 10:27:00,
2013-03-21 03:32:00,46.8,45.2,29.81,North,11,0.0,2.0,94,0.00,,,0.00,0,WeatherCatV1.02B3,2013-03-21 10:32:00,
2013-03-21 03:37:00,47.2,45.8,29.81,North,9,0.0,0.0,95,0.00,,,0.00,0,WeatherCatV1.02B3,2013-03-21 10:37:00,
2013-03-21 03:42:00,46.8,45.2,29.81,North,9,0.0,0.0,94,0.00,,,0.00,0,WeatherCatV1.02B3,2013-03-21 10:42:00,
2013-03-21 03:47:00,47.3,45.9,29.81,North,355,1.0,2.0,95,0.00,,,0.00,0,WeatherCatV1.02B3,2013-03-21 10:47:00,
2013-03-21 03:52:00,47.7,46.3,29.81,NE,46,0.0,1.0,95,0.00,,,0.00,0,WeatherCatV1.02B3,2013-03-21 10:52:00,
2013-03-21 03:57:00,47.1,45.5,29.81,NE,46,0.0,1.0,94,0.00,,,0.00,0,WeatherCatV1.02B3,2013-03-21 10:57:00,
2013-03-21 04:02:00,46.9,45.3,29.81,NE,46,0.0,0.0,94,0.00,,,0.00,0,WeatherCatV1.02B3,2013-03-21 11:02:00,
2013-03-21 04:07:00,47.2,45.6,29.81,NE,46,0.0,0.0,94,0.00,,,0.00,0,WeatherCatV1.02B3,2013-03-21 11:07:00,
2013-03-21 04:12:00,46.7,45.1,29.81,NE,56,1.0,1.0,94,0.00,,,0.00,0,WeatherCatV1.02B3,2013-03-21 11:12:00,
2013-03-21 04:17:00,46.7,45.1,29.81,NE,49,2.0,2.0,94,0.00,,,0.00,0,WeatherCatV1.02B3,2013-03-21 11:17:00,
2013-03-21 04:22:00,47.0,45.4,29.81,NE,49,1.0,1.0,94,0.00,,,0.00,0,WeatherCatV1.02B3,2013-03-21 11:22:00,
2013-03-21 04:27:00,46.4,44.8,29.81,North,350,1.0,1.0,94,0.00,,,0.00,0,WeatherCatV1.02B3,2013-03-21 11:27:00,
2013-03-21 04:32:00,46.5,44.9,29.81,North,350,0.0,1.0,94,0.00,,,0.00,0,WeatherCatV1.02B3,2013-03-21 11:32:00,
2013-03-21 04:37:00,46.6,45.0,29.81,NE,44,1.0,2.0,94,0.00,,,0.00,0,WeatherCatV1.02B3,2013-03-21 11:37:00,
2013-03-21 04:42:00,46.9,45.5,29.81,NE,42,0.0,1.0,95,0.00,,,0.00,0,WeatherCatV1.02B3,2013-03-21 11:42:00,
2013-03-21 04:47:00,46.9,45.3,29.81,West,265,1.0,2.0,94,0.00,,,0.00,0,WeatherCatV1.02B3,2013-03-21 11:47:00,
2013-03-21 04:52:00,46.5,44.9,29.81,West,265,0.0,0.0,94,0.00,,,0.00,0,WeatherCatV1.02B3,2013-03-21 11:52:00,
2013-03-21 04:57:00,45.6,44.0,29.81,WNW,298,0.0,0.0,94,0.00,,,0.00,0,WeatherCatV1.02B3,2013-03-21 11:57:00,
2013-03-21 05:02:00,45.6,44.0,29.81,WNW,298,0.0,0.0,94,0.00,,,0.00,0,WeatherCatV1.02B3,2013-03-21 12:02:00,
2013-03-21 05:07:00,45.1,43.2,29.81,WNW,298,0.0,0.0,93,0.00,,,0.00,0,WeatherCatV1.02B3,2013-03-21 12:07:00,
2013-03-21 05:12:00,45.3,43.7,29.81,WNW,298,0.0,0.0,94,0.00,,,0.00,0,WeatherCatV1.02B3,2013-03-21 12:12:00,
2013-03-21 05:17:00,45.1,43.5,29.81,WNW,298,0.0,0.0,94,0.00,,,0.00,0,WeatherCatV1.02B3,2013-03-21 12:17:00,
2013-03-21 05:22:00,45.8,44.4,29.81,NE,39,0.0,3.0,95,0.00,,,0.00,0,WeatherCatV1.02B3,2013-03-21 12:22:00,
2013-03-21 05:27:00,46.0,44.6,29.81,NE,53,2.0,2.0,95,0.00,,,0.00,0,WeatherCatV1.02B3,2013-03-21 12:27:00,
2013-03-21 05:32:00,46.1,44.7,29.81,North,355,0.0,1.0,95,0.00,,,0.00,0,WeatherCatV1.02B3,2013-03-21 12:32:00,
2013-03-21 05:37:00,46.0,44.6,29.81,North,355,0.0,0.0,95,0.00,,,0.00,0,WeatherCatV1.02B3,2013-03-21 12:37:00,
2013-03-21 05:42:00,45.4,43.8,29.81,East,92,0.0,3.0,94,0.00,,,0.00,0,WeatherCatV1.02B3,2013-03-21 12:42:00,
2013-03-21 05:47:00,45.9,44.5,29.81,East,92,0.0,1.0,95,0.00,,,0.00,0,WeatherCatV1.02B3,2013-03-21 12:47:00,
2013-03-21 05:52:00,44.5,42.6,29.81,East,92,1.0,2.0,93,0.00,,,0.00,0,WeatherCatV1.02B3,2013-03-21 12:52:00,
2013-03-21 05:57:00,44.5,42.9,29.81,East,84,0.0,0.0,94,0.00,,,0.00,0,WeatherCatV1.02B3,2013-03-21 12:57:00,
2013-03-21 06:02:00,45.3,44.0,29.81,NW,325,0.0,2.0,95,0.00,,,0.00,0,WeatherCatV1.02B3,2013-03-21 13:02:00,
2013-03-21 06:07:00,45.3,44.0,29.81,NW,325,0.0,2.0,95,0.00,,,0.00,0,WeatherCatV1.02B3,2013-03-21 13:07:00,
2013-03-21 06:12:00,43.6,41.7,29.81,NW,325,0.0,0.0,93,0.00,,,0.00,0,WeatherCatV1.02B3,2013-03-21 13:12:00,
2013-03-21 06:17:00,43.6,42.0,29.81,NW,325,1.0,1.0,94,0.00,,,0.00,0,WeatherCatV1.02B3,2013-03-21 13:17:00,
2013-03-21 06:22:00,43.5,42.2,29.81,NW,325,0.0,1.0,95,0.00,,,0.00,0,WeatherCatV1.02B3,2013-03-21 13:22:00,
2013-03-21 06:27:00,43.2,41.9,29.81,NW,325,0.0,0.0,95,0.00,,,0.00,0,WeatherCatV1.02B3,2013-03-21 13:27:00,
2013-03-21 06:32:00,43.2,41.9,29.81,NW,325,0.0,0.0,95,0.00,,,0.00,0,WeatherCatV1.02B3,2013-03-21 13:32:00,
2013-03-21 06:37:00,42.3,40.7,29.81,NW,325,0.0,0.0,94,0.00,,,0.00,0,WeatherCatV1.02B3,2013-03-21 13:37:00,
2013-03-21 06:42:00,42.9,41.6,29.81,NW,325,1.0,2.0,95,0.00,,,0.00,0,WeatherCatV1.02B3,2013-03-21 13:42:00,
2013-03-21 06:47:00,44.3,43.2,29.81,NW,325,0.0,0.0,96,0.00,,,0.00,0,WeatherCatV1.02B3,2013-03-21 13:47:00,
2013-03-21 06:52:00,43.9,42.6,29.81,NE,49,1.0,2.0,95,0.00,,,0.00,0,WeatherCatV1.02B3,2013-03-21 13:52:00,
2013-03-21 06:57:00,44.8,43.5,29.81,NE,50,1.0,3.0,95,0.00,,,0.00,0,WeatherCatV1.02B3,2013-03-21 13:57:00,
2013-03-21 07:02:00,45.2,43.9,29.81,NNE,19,0.0,1.0,95,0.00,,,0.00,5,WeatherCatV1.02B3,2013-03-21 14:02:00,
2013-03-21 07:07:00,45.1,43.8,29.81,SSE,159,0.0,1.0,95,0.00,,,0.00,9,WeatherCatV1.02B3,2013-03-21 14:07:00,
2013-03-21 07:12:00,43.9,42.3,29.81,West,263,0.0,0.0,94,0.00,,,0.00,12,WeatherCatV1.02B3,2013-03-21 14:12:00,
2013-03-21 07:17:00,43.9,42.6,29.81,West,263,0.0,1.0,95,0.00,,,0.00,18,WeatherCatV1.02B3,2013-03-21 14:17:00,
2013-03-21 07:22:00,43.4,42.1,29.81,West,263,0.0,0.0,95,0.00,,,0.00,23,WeatherCatV1.02B3,2013-03-21 14:22:00,
2013-03-21 07:27:00,43.7,42.4,29.81,West,263,0.0,0.0,95,0.00,,,0.00,25,WeatherCatV1.02B3,2013-03-21 14:27:00,
2013-03-21 07:32:00,44.2,42.9,29.81,SSW,207,1.0,2.0,95,0.00,,,0.00,30,WeatherCatV1.02B3,2013-03-21 14:32:00,
2013-03-21 07:37:00,43.7,42.1,29.81,WNW,296,0.0,1.0,94,0.00,,,0.00,32,WeatherCatV1.02B3,2013-03-21 14:37:00,
2013-03-21 07:42:00,43.8,42.5,29.81,WNW,296,0.0,0.0,95,0.00,,,0.00,35,WeatherCatV1.02B3,2013-03-21 14:42:00,
2013-03-21 07:47:00,44.2,42.9,29.81,WNW,296,0.0,0.0,95,0.00,,,0.00,39,WeatherCatV1.02B3,2013-03-21 14:47:00,
2013-03-21 07:52:00,44.5,43.2,29.81,WNW,302,0.0,0.0,95,0.00,,,0.00,46,WeatherCatV1.02B3,2013-03-21 14:52:00,
2013-03-21 07:57:00,44.9,43.6,29.81,WNW,302,0.0,1.0,95,0.00,,,0.00,53,WeatherCatV1.02B3,2013-03-21 14:57:00,
2013-03-21 08:02:00,45.2,43.9,29.81,NW,320,0.0,1.0,95,0.00,,,0.00,56,WeatherCatV1.02B3,2013-03-21 15:02:00,
2013-03-21 08:07:00,45.5,44.2,29.81,ENE,60,1.0,2.0,95,0.00,,,0.00,63,WeatherCatV1.02B3,2013-03-21 15:07:00,
2013-03-21 08:12:00,47.1,46.0,29.81,ENE,74,0.0,1.0,96,0.00,,,0.00,63,WeatherCatV1.02B3,2013-03-21 15:12:00,
2013-03-21 08:17:00,47.9,46.5,29.81,SE,134,2.0,3.0,95,0.00,,,0.00,63,WeatherCatV1.02B3,2013-03-21 15:17:00,
2013-03-21 08:22:00,48.5,46.9,29.81,SW,236,1.0,2.0,94,0.00,,,0.00,63,WeatherCatV1.02B3,2013-03-21 15:22:00,
2013-03-21 08:27:00,48.6,46.7,29.81,SW,236,0.0,0.0,93,0.00,,,0.00,86,WeatherCatV1.02B3,2013-03-21 15:27:00,
2013-03-21 08:32:00,48.5,46.3,29.81,SW,236,1.0,1.0,92,0.00,,,0.00,202,WeatherCatV1.02B3,2013-03-21 15:32:00,
2013-03-21 08:37:00,50.4,48.5,29.81,SW,236,0.0,0.0,93,0.00,,,0.00,91,WeatherCatV1.02B3,2013-03-21 15:37:00,
2013-03-21 08:42:00,51.4,48.9,29.81,SW,236,0.0,0.0,91,0.00,,,0.00,162,WeatherCatV1.02B3,2013-03-21 15:42:00,
2013-03-21 08:47:00,52.8,49.3,29.81,SW,236,0.0,0.0,88,0.00,,,0.00,91,WeatherCatV1.02B3,2013-03-21 15:47:00,
2013-03-21 08:52:00,53.8,50.3,29.81,SW,236,0.0,2.0,88,0.00,,,0.00,338,WeatherCatV1.02B3,2013-03-21 15:52:00,
2013-03-21 08:57:00,54.2,49.8,29.81,SW,234,0.0,0.0,85,0.00,,,0.00,197,WeatherCatV1.02B3,2013-03-21 15:57:00,
2013-03-21 09:02:00,54.9,50.5,29.81,North,355,0.0,1.0,85,0.00,,,0.00,171,WeatherCatV1.02B3,2013-03-21 16:02:00,
2013-03-21 09:07:00,56.1,50.7,29.81,North,355,0.0,0.0,82,0.00,,,0.00,311,WeatherCatV1.02B3,2013-03-21 16:07:00,
2013-03-21 09:12:00,57.2,51.4,29.81,North,355,0.0,0.0,81,0.00,,,0.00,287,WeatherCatV1.02B3,2013-03-21 16:12:00,
2013-03-21 09:17:00,58.4,51.2,29.81,North,351,1.0,1.0,77,0.00,,,0.00,264,WeatherCatV1.02B3,2013-03-21 16:17:00,
2013-03-21 09:22:00,59.0,51.8,29.81,North,351,0.0,0.0,77,0.00,,,0.00,264,WeatherCatV1.02B3,2013-03-21 16:22:00,
2013-03-21 09:27:00,59.3,51.7,29.81,North,351,0.0,0.0,76,0.00,,,0.00,392,WeatherCatV1.02B3,2013-03-21 16:27:00,
2013-03-21 09:32:00,60.8,52.8,29.81,West,279,1.0,1.0,75,0.00,,,0.00,457,WeatherCatV1.02B3,2013-03-21 16:32:00,
2013-03-21 09:37:00,61.2,51.7,29.81,WSW,257,0.0,1.0,71,0.00,,,0.00,471,WeatherCatV1.02B3,2013-03-21 16:37:00,
2013-03-21 09:42:00,61.6,50.9,29.81,SSE,157,0.0,1.0,68,0.00,,,0.00,480,WeatherCatV1.02B3,2013-03-21 16:42:00,
2013-03-21 09:47:00,63.1,52.8,29.81,SW,220,2.0,2.0,69,0.00,,,0.00,545,WeatherCatV1.02B3,2013-03-21 16:47:00,
2013-03-21 09:52:00,63.0,50.2,29.81,SSE,168,1.0,2.0,63,0.00,,,0.00,554,WeatherCatV1.02B3,2013-03-21 16:52:00,
2013-03-21 09:57:00,64.3,52.7,29.81,SE,129,0.0,1.0,66,0.00,,,0.00,557,WeatherCatV1.02B3,2013-03-21 16:57:00,
2013-03-21 10:02:00,64.9,52.0,29.81,SW,219,0.0,2.0,63,0.00,,,0.00,561,WeatherCatV1.02B3,2013-03-21 17:02:00,
2013-03-21 10:07:00,65.3,52.4,29.81,WNW,293,0.0,2.0,63,0.00,,,0.00,450,WeatherCatV1.02B3,2013-03-21 17:07:00,
2013-03-21 10:12:00,65.8,52.0,29.81,West,263,0.0,1.0,61,0.00,,,0.00,570,WeatherCatV1.02B3,2013-03-21 17:12:00,
2013-03-21 10:17:00,67.3,52.5,29.81,NW,304,0.0,1.0,59,0.00,,,0.00,617,WeatherCatV1.02B3,2013-03-21 17:17:00,
2013-03-21 10:22:00,68.3,53.4,29.81,West,273,0.0,0.0,59,0.00,,,0.00,643,WeatherCatV1.02B3,2013-03-21 17:22:00,
2013-03-21 10:27:00,67.8,52.5,29.81,West,268,3.0,5.0,58,0.00,,,0.00,656,WeatherCatV1.02B3,2013-03-21 17:27:00,
2013-03-21 10:32:00,68.3,54.8,29.81,SSE,166,1.0,2.0,62,0.00,,,0.00,605,WeatherCatV1.02B3,2013-03-21 17:32:00,
2013-03-21 10:37:00,68.6,53.2,29.81,SW,214,0.0,3.0,58,0.00,,,0.00,673,WeatherCatV1.02B3,2013-03-21 17:37:00,
2013-03-21 10:42:00,69.3,54.3,29.81,West,272,4.0,4.0,59,0.00,,,0.00,689,WeatherCatV1.02B3,2013-03-21 17:42:00,
2013-03-21 10:47:00,69.1,54.2,29.81,WNW,294,3.0,4.0,59,0.00,,,0.00,677,WeatherCatV1.02B3,2013-03-21 17:47:00,
2013-03-21 10:52:00,69.7,55.6,29.81,WSW,257,5.0,5.0,61,0.00,,,0.00,708,WeatherCatV1.02B3,2013-03-21 17:52:00,
2013-03-21 10:57:00,70.3,55.7,29.81,NNW,347,0.0,1.0,60,0.00,,,0.00,729,WeatherCatV1.02B3,2013-03-21 17:57:00,
2013-03-21 11:02:00,72.1,54.0,29.81,NW,322,2.0,4.0,53,0.00,,,0.00,717,WeatherCatV1.02B3,2013-03-21 18:02:00,
2013-03-21 11:07:00,72.9,55.3,29.81,North,5,2.0,2.0,54,0.00,,,0.00,693,WeatherCatV1.02B3,2013-03-21 18:07:00,
2013-03-21 11:12:00,72.2,53.1,29.81,WSW,244,1.0,4.0,51,0.00,,,0.00,742,WeatherCatV1.02B3,2013-03-21 18:12:00,
2013-03-21 11:17:00,72.4,53.8,29.81,ENE,58,0.0,2.0,52,0.00,,,0.00,744,WeatherCatV1.02B3,2013-03-21 18:17:00,
2013-03-21 11:22:00,72.7,54.0,29.81,ENE,62,0.0,5.0,52,0.00,,,0.00,777,WeatherCatV1.02B3,2013-03-21 18:22:00,
2013-03-21 11:27:00,73.5,52.6,29.81,WNW,288,0.0,1.0,48,0.00,,,0.00,786,WeatherCatV1.02B3,2013-03-21 18:27:00,
2013-03-21 11:32:00,73.7,51.6,29.81,NW,317,2.0,2.0,46,0.00,,,0.00,786,WeatherCatV1.02B3,2013-03-21 18:32:00,
2013-03-21 11:37:00,74.4,51.7,29.81,ENE,73,1.0,2.0,45,0.00,,,0.00,796,WeatherCatV1.02B3,2013-03-21 18:37:00,
2013-03-21 11:42:00,74.5,54.6,29.81,NW,321,3.0,4.0,50,0.00,,,0.00,800,WeatherCatV1.02B3,2013-03-21 18:42:00,
2013-03-21 11:47:00,74.9,55.0,29.81,NNW,339,0.0,2.0,50,0.00,,,0.00,810,WeatherCatV1.02B3,2013-03-21 18:47:00,
2013-03-21 11:52:00,74.3,53.9,29.81,WNW,295,6.0,7.0,49,0.00,,,0.00,812,WeatherCatV1.02B3,2013-03-21 18:52:00,
2013-03-21 11:57:00,75.1,54.1,29.81,NW,315,0.0,3.0,48,0.00,,,0.00,819,WeatherCatV1.02B3,2013-03-21 18:57:00,
2013-03-21 12:02:00,75.0,52.8,29.81,West,275,2.0,4.0,46,0.00,,,0.00,824,WeatherCatV1.02B3,2013-03-21 19:02:00,
2013-03-21 12:07:00,75.6,54.5,29.81,NNE,22,1.0,4.0,48,0.00,,,0.00,828,WeatherCatV1.02B3,2013-03-21 19:07:00,
2013-03-21 12:12:00,74.3,53.3,29.81,NW,306,0.0,3.0,48,0.00,,,0.00,835,WeatherCatV1.02B3,2013-03-21 19:12:00,
2013-03-21 12:17:00,75.5,55.5,29.81,NNW,337,0.0,4.0,50,0.00,,,0.00,838,WeatherCatV1.02B3,2013-03-21 19:17:00,
2013-03-21 12:22:00,74.6,54.2,29.81,ENE,65,3.0,8.0,49,0.00,,,0.00,842,WeatherCatV1.02B3,2013-03-21 19:22:00,
2013-03-21 12:27:00,76.1,56.1,29.81,ENE,61,4.0,7.0,50,0.00,,,0.00,847,WeatherCatV1.02B3,2013-03-21 19:27:00,
2013-03-21 12:32:00,75.4,56.0,29.81,NNE,17,3.0,5.0,51,0.00,,,0.00,851,WeatherCatV1.02B3,2013-03-21 19:32:00,
2013-03-21 12:37:00,74.2,56.5,29.81,SSE,155,1.0,5.0,54,0.00,,,0.00,851,WeatherCatV1.02B3,2013-03-21 19:37:00,
2013-03-21 12:42:00,73.3,56.1,29.81,East,84,1.0,4.0,55,0.00,,,0.00,856,WeatherCatV1.02B3,2013-03-21 19:42:00,
2013-03-21 12:47:00,74.1,57.9,29.81,North,350,1.0,4.0,57,0.00,,,0.00,858,WeatherCatV1.02B3,2013-03-21 19:47:00,
2013-03-21 12:52:00,74.0,56.3,29.64,ENE,78,1.0,6.0,54,0.00,,,0.00,861,WeatherCatV1.02B3,2013-03-21 19:52:00,
2013-03-21 12:57:00,72.9,53.7,29.64,WSW,258,3.0,6.0,51,0.00,,,0.00,861,WeatherCatV1.02B3,2013-03-21 19:57:00,
2013-03-21 13:02:00,73.1,53.9,29.64,SE,125,1.0,2.0,51,0.00,,,0.00,863,WeatherCatV1.02B3,2013-03-21 20:02:00,
2013-03-21 13:07:00,73.5,53.2,29.64,North,355,1.0,3.0,49,0.00,,,0.00,860,WeatherCatV1.02B3,2013-03-21 20:07:00,
2013-03-21 13:12:00,73.6,54.3,29.63,NNE,26,0.0,3.0,51,0.00,,,0.00,863,WeatherCatV1.02B3,2013-03-21 20:12:00,
2013-03-21 13:17:00,74.4,52.8,29.63,ESE,105,3.0,5.0,47,0.00,,,0.00,865,WeatherCatV1.02B3,2013-03-21 20:17:00,
2013-03-21 13:22:00,74.2,52.7,29.63,NNW,345,2.0,2.0,47,0.00,,,0.00,861,WeatherCatV1.02B3,2013-03-21 20:22:00,
2013-03-21 13:27:00,74.6,54.2,29.63,ESE,112,0.0,4.0,49,0.00,,,0.00,858,WeatherCatV1.02B3,2013-03-21 20:27:00,
2013-03-21 13:32:00,75.7,54.6,29.63,West,273,1.0,2.0,48,0.00,,,0.00,858,WeatherCatV1.02B3,2013-03-21 20:32:00,
2013-03-21 13:37:00,75.0,52.2,29.63,NE,45,1.0,2.0,45,0.00,,,0.00,853,WeatherCatV1.02B3,2013-03-21 20:37:00,
2013-03-21 13:42:00,75.5,53.3,29.63,East,82,2.0,3.0,46,0.00,,,0.00,849,WeatherCatV1.02B3,2013-03-21 20:42:00,
2013-03-21 13:47:00,76.4,51.6,29.63,WNW,282,4.0,4.0,42,0.00,,,0.00,851,WeatherCatV1.02B3,2013-03-21 20:47:00,
2013-03-21 13:52:00,76.8,53.8,29.63,East,87,5.0,5.0,45,0.00,,,0.00,847,WeatherCatV1.02B3,2013-03-21 20:52:00,
2013-03-21 13:57:00,77.3,52.4,29.63,East,80,2.0,5.0,42,0.00,,,0.00,844,WeatherCatV1.02B3,2013-03-21 20:57:00,
2013-03-21 14:02:00,76.8,51.9,29.63,WNW,296,3.0,3.0,42,0.00,,,0.00,838,WeatherCatV1.02B3,2013-03-21 21:02:00,
2013-03-21 14:07:00,76.7,51.9,29.63,NNW,329,2.0,5.0,42,0.00,,,0.00,833,WeatherCatV1.02B3,2013-03-21 21:07:00,
2013-03-21 14:12:00,76.0,50.6,29.63,NE,46,2.0,3.0,41,0.00,,,0.00,830,WeatherCatV1.02B3,2013-03-21 21:12:00,
2013-03-21 14:17:00,76.0,52.5,29.63,NE,36,1.0,3.0,44,0.00,,,0.00,819,WeatherCatV1.02B3,2013-03-21 21:17:00,
2013-03-21 14:22:00,75.7,52.2,29.63,East,84,6.0,6.0,44,0.00,,,0.00,814,WeatherCatV1.02B3,2013-03-21 21:22:00,
2013-03-21 14:27:00,75.5,50.1,29.63,ESE,120,1.0,5.0,41,0.00,,,0.00,809,WeatherCatV1.02B3,2013-03-21 21:27:00,
2013-03-21 14:32:00,75.6,50.9,29.63,NE,41,2.0,3.0,42,0.00,,,0.00,803,WeatherCatV1.02B3,2013-03-21 21:32:00,
2013-03-21 14:37:00,75.2,49.2,29.63,NNE,28,1.0,7.0,40,0.00,,,0.00,796,WeatherCatV1.02B3,2013-03-21 21:37:00,
2013-03-21 14:42:00,75.6,49.6,29.63,East,87,3.0,3.0,40,0.00,,,0.00,788,WeatherCatV1.02B3,2013-03-21 21:42:00,
2013-03-21 14:47:00,75.7,49.6,29.63,East,94,2.0,7.0,40,0.00,,,0.00,779,WeatherCatV1.02B3,2013-03-21 21:47:00,
2013-03-21 14:52:00,75.9,47.0,29.63,North,5,1.0,3.0,36,0.00,,,0.00,772,WeatherCatV1.02B3,2013-03-21 21:52:00,
2013-03-21 14:57:00,76.4,49.6,29.63,NE,37,1.0,5.0,39,0.00,,,0.00,761,WeatherCatV1.02B3,2013-03-21 21:57:00,
2013-03-21 15:02:00,75.8,47.7,29.63,SE,134,1.0,4.0,37,0.00,,,0.00,754,WeatherCatV1.02B3,2013-03-21 22:02:00,
2013-03-21 15:07:00,75.8,47.7,29.63,SSE,167,2.0,7.0,37,0.00,,,0.00,742,WeatherCatV1.02B3,2013-03-21 22:07:00,
2013-03-21 15:12:00,75.1,46.3,29.63,SE,146,2.0,5.0,36,0.00,,,0.00,729,WeatherCatV1.02B3,2013-03-21 22:12:00,
2013-03-21 15:17:00,75.6,47.5,29.63,NE,54,1.0,6.0,37,0.00,,,0.00,721,WeatherCatV1.02B3,2013-03-21 22:17:00,
2013-03-21 15:22:00,76.0,50.6,29.63,NE,46,0.0,1.0,41,0.00,,,0.00,708,WeatherCatV1.02B3,2013-03-21 22:22:00,
2013-03-21 15:27:00,76.0,49.2,29.63,North,349,1.0,3.0,39,0.00,,,0.00,701,WeatherCatV1.02B3,2013-03-21 22:27:00,
2013-03-21 15:32:00,75.9,49.1,29.63,ENE,78,3.0,3.0,39,0.00,,,0.00,689,WeatherCatV1.02B3,2013-03-21 22:32:00,
2013-03-21 15:37:00,75.8,48.4,29.63,NW,304,3.0,3.0,38,0.00,,,0.00,675,WeatherCatV1.02B3,2013-03-21 22:37:00,
2013-03-21 15:42:00,76.4,49.6,29.63,NNW,341,3.0,7.0,39,0.00,,,0.00,663,WeatherCatV1.02B3,2013-03-21 22:42:00,
2013-03-21 15:47:00,75.2,47.8,29.63,NE,42,1.0,3.0,38,0.00,,,0.00,650,WeatherCatV1.02B3,2013-03-21 22:47:00,
2013-03-21 15:52:00,75.8,49.7,29.63,NW,304,0.0,2.0,40,0.00,,,0.00,633,WeatherCatV1.02B3,2013-03-21 22:52:00,
2013-03-21 15:57:00,75.8,48.4,29.63,WSW,254,1.0,3.0,38,0.00,,,0.00,617,WeatherCatV1.02B3,2013-03-21 22:57:00,
2013-03-21 16:02:00,75.8,49.7,29.63,NE,53,2.0,4.0,40,0.00,,,0.00,605,WeatherCatV1.02B3,2013-03-21 23:02:00,
2013-03-21 16:07:00,75.5,50.8,29.63,NNW,340,1.0,3.0,42,0.00,,,0.00,592,WeatherCatV1.02B3,2013-03-21 23:07:00,
2013-03-21 16:12:00,74.9,49.6,29.63,East,80,2.0,5.0,41,0.00,,,0.00,577,WeatherCatV1.02B3,2013-03-21 23:12:00,
2013-03-21 16:17:00,73.9,50.6,29.63,East,88,3.0,6.0,44,0.00,,,0.00,563,WeatherCatV1.02B3,2013-03-21 23:17:00,
2013-03-21 16:22:00,73.4,49.5,29.63,North,355,0.0,5.0,43,0.00,,,0.00,543,WeatherCatV1.02B3,2013-03-21 23:22:00,
2013-03-21 16:27:00,73.4,49.5,29.63,North,351,0.0,2.0,43,0.00,,,0.00,527,WeatherCatV1.02B3,2013-03-21 23:27:00,
2013-03-21 16:32:00,73.9,50.6,29.63,ENE,78,2.0,2.0,44,0.00,,,0.00,512,WeatherCatV1.02B3,2013-03-21 23:32:00,
2013-03-21 16:37:00,73.9,51.2,29.63,West,275,1.0,2.0,45,0.00,,,0.00,492,WeatherCatV1.02B3,2013-03-21 23:37:00,
2013-03-21 16:42:00,73.8,52.9,29.63,West,272,1.0,2.0,48,0.00,,,0.00,476,WeatherCatV1.02B3,2013-03-21 23:42:00,
2013-03-21 16:47:00,72.5,50.5,29.63,NE,39,2.0,5.0,46,0.00,,,0.00,462,WeatherCatV1.02B3,2013-03-21 23:47:00,
2013-03-21 16:52:00,73.0,51.6,29.63,NNW,331,0.0,3.0,47,0.00,,,0.00,445,WeatherCatV1.02B3,2013-03-21 23:52:00,
2013-03-21 16:57:00,73.9,53.0,29.63,NE,49,0.0,4.0,48,0.00,,,0.00,425,WeatherCatV1.02B3,2013-03-21 23:57:00,
2013-03-21 17:02:00,73.7,50.4,29.63,ENE,69,4.0,4.0,44,0.00,,,0.00,406,WeatherCatV1.02B3,2013-03-22 00:02:00,
2013-03-21 17:08:00,73.4,51.3,29.63,NNW,330,1.0,1.0,46,0.00,,,0.00,387,WeatherCatV1.02B3,2013-03-22 00:08:00,
2013-03-21 17:13:00,72.7,51.9,29.63,NE,41,2.0,2.0,48,0.00,,,0.00,369,WeatherCatV1.02B3,2013-03-22 00:13:00,
2013-03-21 17:17:00,72.6,51.2,29.63,NNW,345,0.0,1.0,47,0.00,,,0.00,353,WeatherCatV1.02B3,2013-03-22 00:17:00,
2013-03-21 17:22:00,72.2,52.0,29.63,ENE,76,2.0,3.0,49,0.00,,,0.00,336,WeatherCatV1.02B3,2013-03-22 00:22:00,
2013-03-21 17:27:00,72.2,52.0,29.63,ESE,107,0.0,4.0,49,0.00,,,0.00,316,WeatherCatV1.02B3,2013-03-22 00:27:00,
2013-03-21 17:32:00,72.2,51.4,29.63,South,178,1.0,1.0,48,0.00,,,0.00,301,WeatherCatV1.02B3,2013-03-22 00:32:00,
2013-03-21 17:37:00,72.0,51.8,29.63,WNW,288,3.0,3.0,49,0.00,,,0.00,278,WeatherCatV1.02B3,2013-03-22 00:37:00,
2013-03-21 17:42:00,71.2,52.7,29.63,West,275,0.0,5.0,52,0.00,,,0.00,257,WeatherCatV1.02B3,2013-03-22 00:42:00,
2013-03-21 17:47:00,70.0,52.6,29.63,West,262,5.0,7.0,54,0.00,,,0.00,237,WeatherCatV1.02B3,2013-03-22 00:47:00,
2013-03-21 17:52:00,69.3,53.9,29.63,West,281,0.0,2.0,58,0.00,,,0.00,220,WeatherCatV1.02B3,2013-03-22 00:52:00,
2013-03-21 17:57:00,69.4,53.0,29.63,WNW,285,4.0,6.0,56,0.00,,,0.00,199,WeatherCatV1.02B3,2013-03-22 00:57:00,
2013-03-21 18:02:00,69.2,53.3,29.63,NW,308,0.0,2.0,57,0.00,,,0.00,176,WeatherCatV1.02B3,2013-03-22 01:02:00,
2013-03-21 18:07:00,69.2,52.8,29.63,North,350,2.0,2.0,56,0.00,,,0.00,156,WeatherCatV1.02B3,2013-03-22 01:07:00,
2013-03-21 18:12:00,67.8,52.5,29.63,South,182,0.0,0.0,58,0.00,,,0.00,114,WeatherCatV1.02B3,2013-03-22 01:12:00,
2013-03-21 18:17:00,67.0,52.2,29.63,WSW,258,0.0,5.0,59,0.00,,,0.00,107,WeatherCatV1.02B3,2013-03-22 01:17:00,
2013-03-21 18:22:00,65.8,52.4,29.63,West,271,2.0,8.0,62,0.00,,,0.00,44,WeatherCatV1.02B3,2013-03-22 01:22:00,
2013-03-21 18:27:00,64.7,52.2,29.63,WNW,289,1.0,2.0,64,0.00,,,0.00,32,WeatherCatV1.02B3,2013-03-22 01:27:00,
2013-03-21 18:32:00,63.7,52.1,29.63,West,266,0.0,2.0,66,0.00,,,0.00,26,WeatherCatV1.02B3,2013-03-22 01:32:00,
2013-03-21 18:38:00,62.8,51.7,29.63,West,264,0.0,1.0,67,0.00,,,0.00,25,WeatherCatV1.02B3,2013-03-22 01:38:00,
2013-03-21 18:43:00,62.2,51.9,29.63,West,264,2.0,2.0,69,0.00,,,0.00,21,WeatherCatV1.02B3,2013-03-22 01:43:00,
2013-03-21 18:48:00,60.8,51.3,29.63,West,269,0.0,0.0,71,0.00,,,0.00,19,WeatherCatV1.02B3,2013-03-22 01:48:00,
2013-03-21 18:52:00,60.6,51.5,29.63,West,269,0.0,0.0,72,0.00,,,0.00,16,WeatherCatV1.02B3,2013-03-22 01:52:00,
2013-03-21 18:57:00,60.0,50.9,29.63,WSW,248,1.0,1.0,72,0.00,,,0.00,12,WeatherCatV1.02B3,2013-03-22 01:57:00,
2013-03-21 19:02:00,59.2,50.5,29.63,WSW,248,0.0,0.0,73,0.00,,,0.00,9,WeatherCatV1.02B3,2013-03-22 02:02:00,
2013-03-21 19:07:00,58.6,50.3,29.63,WSW,248,0.0,1.0,74,0.00,,,0.00,7,WeatherCatV1.02B3,2013-03-22 02:07:00,
2013-03-21 19:12:00,58.0,49.8,29.63,WSW,248,0.0,0.0,74,0.00,,,0.00,0,WeatherCatV1.02B3,2013-03-22 02:12:00,
2013-03-21 19:17:00,57.7,49.5,29.63,WSW,248,0.0,0.0,74,0.00,,,0.00,0,WeatherCatV1.02B3,2013-03-22 02:17:00,
2013-03-21 19:22:00,57.5,49.3,29.63,WSW,248,0.0,1.0,74,0.00,,,0.00,0,WeatherCatV1.02B3,2013-03-22 02:22:00,
2013-03-21 19:27:00,57.2,48.3,29.63,WSW,248,1.0,2.0,72,0.00,,,0.00,0,WeatherCatV1.02B3,2013-03-22 02:27:00,
2013-03-21 19:32:00,55.8,48.0,29.63,WSW,248,0.0,0.0,75,0.00,,,0.00,0,WeatherCatV1.02B3,2013-03-22 02:32:00,
2013-03-21 19:37:00,56.1,49.0,29.63,WSW,248,0.0,0.0,77,0.00,,,0.00,0,WeatherCatV1.02B3,2013-03-22 02:37:00,
2013-03-21 19:42:00,56.2,49.1,29.63,WSW,248,0.0,0.0,77,0.00,,,0.00,0,WeatherCatV1.02B3,2013-03-22 02:42:00,
2013-03-21 19:47:00,55.6,48.8,29.63,WSW,248,0.0,0.0,78,0.00,,,0.00,0,WeatherCatV1.02B3,2013-03-22 02:47:00,
2013-03-21 19:52:00,54.0,47.6,29.63,WSW,248,0.0,0.0,79,0.00,,,0.00,0,WeatherCatV1.02B3,2013-03-22 02:52:00,
2013-03-21 19:57:00,53.3,47.0,29.63,WSW,248,0.0,0.0,79,0.00,,,0.00,0,WeatherCatV1.02B3,2013-03-22 02:57:00,
2013-03-21 20:02:00,54.1,48.1,29.63,WSW,248,0.0,2.0,80,0.00,,,0.00,0,WeatherCatV1.02B3,2013-03-22 03:02:00,
2013-03-21 20:08:00,53.8,48.4,29.63,WSW,248,0.0,1.0,82,0.00,,,0.00,0,WeatherCatV1.02B3,2013-03-22 03:08:00,
2013-03-21 20:13:00,53.0,46.7,29.63,WNW,282,0.0,1.0,79,0.00,,,0.00,0,WeatherCatV1.02B3,2013-03-22 03:13:00,
2013-03-21 20:18:00,52.8,46.8,29.63,NE,49,0.0,1.0,80,0.00,,,0.00,0,WeatherCatV1.02B3,2013-03-22 03:18:00,
2013-03-21 20:23:00,52.6,44.9,29.63,North,9,0.0,0.0,75,0.00,,,0.00,0,WeatherCatV1.02B3,2013-03-22 03:23:00,
2013-03-21 20:28:00,51.7,45.1,29.63,North,9,0.0,1.0,78,0.00,,,0.00,0,WeatherCatV1.02B3,2013-03-22 03:28:00,
2013-03-21 20:32:00,51.3,44.3,29.63,North,9,0.0,0.0,77,0.00,,,0.00,0,WeatherCatV1.02B3,2013-03-22 03:32:00,
2013-03-21 20:38:00,51.2,44.2,29.63,NE,54,1.0,1.0,77,0.00,,,0.00,0,WeatherCatV1.02B3,2013-03-22 03:38:00,
2013-03-21 20:43:00,51.5,42.8,29.63,ENE,57,1.0,4.0,72,0.00,,,0.00,0,WeatherCatV1.02B3,2013-03-22 03:43:00,
2013-03-21 20:48:00,53.8,41.9,29.63,NE,44,0.0,4.0,64,0.00,,,0.00,0,WeatherCatV1.02B3,2013-03-22 03:48:00,
2013-03-21 20:53:00,56.5,37.0,29.63,NNE,28,1.0,2.0,48,0.00,,,0.00,0,WeatherCatV1.02B3,2013-03-22 03:53:00,
2013-03-21 20:58:00,58.1,38.5,29.63,WSW,250,1.0,2.0,48,0.00,,,0.00,0,WeatherCatV1.02B3,2013-03-22 03:58:00,
2013-03-21 21:00:00,57.1,37.6,29.63,SW,223,2.0,2.0,48,0.00,,,0.00,0,WeatherCatV1.02B3,2013-03-22 04:00:00,
2013-03-21 21:01:00,56.7,38.8,29.63,WNW,300,0.0,2.0,51,0.00,,,0.00,0,WeatherCatV1.02B3,2013-03-22 04:01:00,
2013-03-21 21:06:00,54.8,38.0,29.63,WNW,287,1.0,3.0,53,0.00,,,0.00,0,WeatherCatV1.02B3,2013-03-22 04:06:00,
2013-03-21 21:11:00,53.5,36.8,29.63,WNW,293,0.0,2.0,53,0.00,,,0.00,0,WeatherCatV1.02B3,2013-03-22 04:11:00,
2013-03-21 21:16:00,54.7,37.4,29.63,NNW,331,0.0,4.0,52,0.00,,,0.00,0,WeatherCatV1.02B3,2013-03-22 04:16:00,
2013-03-21 21:21:00,57.1,36.5,29.63,NW,306,2.0,9.0,46,0.00,,,0.00,0,WeatherCatV1.02B3,2013-03-22 04:21:00,
2013-03-21 21:26:00,59.4,36.9,29.63,NW,314,2.0,2.0,43,0.00,,,0.00,0,WeatherCatV1.02B3,2013-03-22 04:26:00,
2013-03-21 21:31:00,57.4,36.8,29.63,NW,316,1.0,2.0,46,0.00,,,0.00,0,WeatherCatV1.02B3,2013-03-22 04:31:00,
2013-03-21 21:36:00,55.8,36.4,29.63,East,88,2.0,2.0,48,0.00,,,0.00,0,WeatherCatV1.02B3,2013-03-22 04:36:00,
2013-03-21 21:41:00,57.6,35.8,29.63,SE,126,4.0,5.0,44,0.00,,,0.00,0,WeatherCatV1.02B3,2013-03-22 04:41:00,
2013-03-21 21:46:00,60.3,36.5,29.63,ENE,70,1.0,4.0,41,0.00,,,0.00,0,WeatherCatV1.02B3,2013-03-22 04:46:00,
2013-03-21 21:51:00,61.6,37.0,29.63,SW,230,4.0,4.0,40,0.00,,,0.00,0,WeatherCatV1.02B3,2013-03-22 04:51:00,
2013-03-21 21:56:00,62.0,36.8,29.63,SSW,202,2.0,3.0,39,0.00,,,0.00,0,WeatherCatV1.02B3,2013-03-22 04:56:00,
2013-03-21 22:01:00,62.6,37.3,29.63,ESE,113,2.0,6.0,39,0.00,,,0.00,0,WeatherCatV1.02B3,2013-03-22 05:01:00,
2013-03-21 22:06:00,63.3,37.3,29.63,WSW,237,1.0,4.0,38,0.00,,,0.00,0,WeatherCatV1.02B3,2013-03-22 05:06:00,
2013-03-21 22:11:00,62.9,38.2,29.63,South,173,1.0,2.0,40,0.00,,,0.00,0,WeatherCatV1.02B3,2013-03-22 05:11:00,
2013-03-21 22:16:00,58.6,37.3,29.63,NW,309,3.0,3.0,45,0.00,,,0.00,0,WeatherCatV1.02B3,2013-03-22 05:16:00,
2013-03-21 22:21:00,57.1,37.6,29.63,East,88,1.0,4.0,48,0.00,,,0.00,0,WeatherCatV1.02B3,2013-03-22 05:21:00,
2013-03-21 22:26:00,59.7,37.2,29.63,WNW,285,1.0,4.0,43,0.00,,,0.00,0,WeatherCatV1.02B3,2013-03-22 05:26:00,
2013-03-21 22:31:00,61.1,37.2,29.63,SSE,164,0.0,1.0,41,0.00,,,0.00,0,WeatherCatV1.02B3,2013-03-22 05:31:00,
2013-03-21 22:36:00,59.1,37.8,29.63,NE,46,3.0,3.0,45,0.00,,,0.00,0,WeatherCatV1.02B3,2013-03-22 05:36:00,
2013-03-21 22:41:00,59.4,37.5,29.63,ESE,119,0.0,0.0,44,0.00,,,0.00,0,WeatherCatV1.02B3,2013-03-22 05:41:00,
2013-03-21 22:46:00,58.6,37.9,29.63,NNW,339,0.0,4.0,46,0.00,,,0.00,0,WeatherCatV1.02B3,2013-03-22 05:46:00,
2013-03-21 22:51:00,59.7,36.0,29.63,North,0,0.0,6.0,41,0.00,,,0.00,0,WeatherCatV1.02B3,2013-03-22 05:51:00,
2013-03-21 22:56:00,61.6,35.7,29.63,NNE,28,1.0,5.0,38,0.00,,,0.00,0,WeatherCatV1.02B3,2013-03-22 05:56:00,
2013-03-21 23:01:00,62.5,34.5,29.63,NE,38,3.0,6.0,35,0.00,,,0.00,0,WeatherCatV1.02B3,2013-03-22 06:01:00,
2013-03-21 23:06:00,62.9,33.4,29.63,NW,315,4.0,11.0,33,0.00,,,0.00,0,WeatherCatV1.02B3,2013-03-22 06:06:00,
2013-03-21 23:11:00,63.6,33.2,29.63,NNW,335,5.0,9.0,32,0.00,,,0.00,0,WeatherCatV1.02B3,2013-03-22 06:11:00,
2013-03-21 23:16:00,63.9,31.9,29.63,NE,36,3.0,11.0,30,0.00,,,0.00,0,WeatherCatV1.02B3,2013-03-22 06:16:00,
2013-03-21 23:21:00,64.0,33.5,29.63,West,269,4.0,5.0,32,0.00,,,0.00,0,WeatherCatV1.02B3,2013-03-22 06:21:00,
2013-03-21 23:26:00,64.1,34.4,29.63,ESE,112,0.0,5.0,33,0.00,,,0.00,0,WeatherCatV1.02B3,2013-03-22 06:26:00,
2013-03-21 23:31:00,63.7,35.5,29.63,SSE,161,1.0,5.0,35,0.00,,,0.00,0,WeatherCatV1.02B3,2013-03-22 06:31:00,
2013-03-21 23:36:00,63.4,35.3,29.63,SE,133,4.0,4.0,35,0.00,,,0.00,0,WeatherCatV1.02B3,2013-03-22 06:36:00,
2013-03-21 23:41:00,63.0,36.3,29.63,ESE,115,5.0,5.0,37,0.00,,,0.00,0,WeatherCatV1.02B3,2013-03-22 06:41:00,
2013-03-21 23:46:00,62.4,35.8,29.63,ESE,103,0.0,6.0,37,0.00,,,0.00,0,WeatherCatV1.02B3,2013-03-22 06:46:00,
2013-03-21 23:51:00,62.2,34.9,29.63,SSE,156,2.0,4.0,36,0.00,,,0.00,0,WeatherCatV1.02B3,2013-03-22 06:51:00,
2013-03-21 23:56:00,62.7,32.4,29.63,NNE,26,2.0,8.0,32,0.00,,,0.00,0,WeatherCatV1.02B3,2013-03-22 06:56:00,